Change the Weather History Date:

Thursday, January 16, 2014

  Actual Average Record
Temperature  
Mean Temperature 32 °F -  
Max Temperature 37 °F 32 °F 50 °F (1997)
Min Temperature 28 °F 11 °F -9 °F (2004)
Degree Days  
Heating Degree Days 32    
Moisture  
Dew Point 33 °F    
Average Humidity 99    
Maximum Humidity 100    
Minimum Humidity 93    
Precipitation  
Precipitation 0.00 in - - ()
Sea Level Pressure  
Sea Level Pressure 29.89 in    
Wind  
Wind Speed 1 mph (NE)    
Max Wind Speed 6 mph    
Max Gust Speed -    
Visibility 1 miles    
Events Fog    
Averages and records for this station are not official NWS values.
T = Trace of Precipitation, MM = Missing Value Source: NWS Daily Summary

Daily Weather History Graph

Daily Weather History Graph

Search for Another Location

Airport or City:

Trip Planner

Search our weather history database for the weather conditions in past years. The results will help you decide how hot, cold, wet, or windy it might be!

Date:

Astronomy

Jan. 16, 2014 Rise Set
Actual Time 7:11 AM EST 4:38 PM EST
Civil Twilight 6:40 AM EST 5:09 PM EST
Nautical Twilight 6:05 AM EST 5:44 PM EST
Astronomical Twilight 5:32 AM EST 6:18 PM EST
Moon 5:29 PM EST (1/16) 7:01 AM EST (1/16)
Length of Visible Light 10h 29m
Length of Day
9h 27m
Full, 100% of the Moon is Illuminated
Jan 16
Full
Jan 24
Last Quarter
Jan 30
New
Feb 6
First Quarter
Feb 14
Full

Hourly Weather History & Observations

Time (EST) Temp. Windchill Dew Point Humidity Pressure Visibility Wind Dir Wind Speed Gust Speed Precip Events Conditions
12:05 AM 30.2 °F - 30.2 °F 100% 29.88 in 0.2 mi Calm Calm - N/A Fog Light Freezing Fog
12:39 AM 30.2 °F - 30.2 °F 100% 29.87 in 0.2 mi Calm Calm - N/A Fog Light Freezing Fog
12:56 AM 30.9 °F - 30.9 °F 100% 29.92 in 0.2 mi Calm Calm - N/A Fog Light Freezing Fog
1:56 AM 30.9 °F - 30.9 °F 100% 29.94 in 0.2 mi Calm Calm - N/A Fog Light Freezing Fog
2:23 AM 30.2 °F - 30.2 °F 100% 29.89 in 0.2 mi Calm Calm - N/A Fog Light Freezing Fog
2:33 AM 30.2 °F - 30.2 °F 100% 29.89 in 0.2 mi Calm Calm - N/A Fog Light Freezing Fog
2:44 AM 30.2 °F - 30.2 °F 100% 29.88 in 0.2 mi Calm Calm - N/A Fog Light Freezing Fog
2:56 AM 30.9 °F - 30.9 °F 100% 29.92 in 0.2 mi Calm Calm - N/A Fog Light Freezing Fog
3:08 AM 30.2 °F - 30.2 °F 100% 29.88 in 0.5 mi Calm Calm - N/A Fog Light Freezing Fog
3:15 AM 30.2 °F - 30.2 °F 100% 29.87 in 0.8 mi Calm Calm - N/A   Scattered Clouds
3:17 AM 30.2 °F - 30.2 °F 100% 29.87 in 1.0 mi Calm Calm - N/A   Mist
3:25 AM 30.2 °F - 30.2 °F 100% 29.87 in 0.5 mi Calm Calm - N/A Fog Light Freezing Fog
3:33 AM 30.2 °F - 30.2 °F 100% 29.86 in 0.2 mi Calm Calm - N/A Fog Light Freezing Fog
3:47 AM 30.2 °F - 30.2 °F 100% 29.87 in 0.5 mi Calm Calm - N/A Fog Light Freezing Fog
3:56 AM 30.0 °F - 30.0 °F 100% 29.91 in 0.5 mi Calm Calm - N/A Fog Light Freezing Fog
4:14 AM 28.4 °F - 28.4 °F 100% 29.86 in 0.2 mi Calm Calm - N/A Fog Light Freezing Fog
4:24 AM 28.4 °F - 28.4 °F 100% 29.86 in 0.2 mi Calm Calm - N/A Fog Light Freezing Fog
4:38 AM 30.2 °F - 30.2 °F 100% 29.86 in 0.2 mi Calm Calm - N/A Fog Light Freezing Fog
4:56 AM 28.9 °F - 28.9 °F 100% 29.90 in 0.2 mi Calm Calm - N/A Fog Light Freezing Fog
5:08 AM 28.4 °F - 28.4 °F 100% 29.85 in 0.2 mi Calm Calm - N/A Fog Light Freezing Fog
5:14 AM 28.4 °F - 28.4 °F 100% 29.86 in 1.2 mi Calm Calm - N/A   Scattered Clouds
5:22 AM 28.4 °F - 28.4 °F 100% 29.86 in 2.5 mi Calm Calm - N/A   Scattered Clouds
5:34 AM 28.4 °F - 28.4 °F 100% 29.85 in 1.2 mi Calm Calm - N/A   Clear
5:47 AM 28.4 °F - 28.4 °F 100% 29.85 in 0.5 mi Calm Calm - N/A Fog Light Freezing Fog
5:56 AM 30.0 °F - 30.0 °F 100% 29.91 in 0.8 mi Calm Calm - N/A   Clear
6:28 AM 28.4 °F - 28.4 °F 100% 29.86 in 0.2 mi Calm Calm - N/A Fog Light Freezing Fog
6:32 AM 28.4 °F - 28.4 °F 100% 29.86 in 0.8 mi Calm Calm - N/A   Clear
6:44 AM 28.4 °F - 28.4 °F 100% 29.86 in 0.2 mi Calm Calm - N/A Fog Light Freezing Fog
6:53 AM 28.4 °F - 28.4 °F 100% 29.86 in 2.0 mi Calm Calm - N/A Fog Mostly Cloudy
6:56 AM 28.0 °F - 28.0 °F 100% 29.91 in 2.0 mi Calm Calm - N/A Fog Mostly Cloudy
7:20 AM 28.4 °F - 28.4 °F 100% 29.86 in 5.0 mi Calm Calm - N/A Fog Mostly Cloudy
7:56 AM 28.0 °F - 28.0 °F 100% 29.92 in 5.0 mi Calm Calm - N/A Fog Mostly Cloudy
8:03 AM 28.4 °F - 28.4 °F 100% 29.87 in 1.5 mi Calm Calm - N/A Fog Mostly Cloudy
8:14 AM 30.2 °F - 30.2 °F 100% 29.87 in 2.5 mi Calm Calm - N/A Fog Mostly Cloudy
8:56 AM 30.9 °F 27.5 °F 30.9 °F 100% 29.92 in 2.0 mi WNW 3.5 mph - N/A   Mist
9:56 AM 33.1 °F - 33.1 °F 100% 29.96 in 2.0 mi Calm Calm - N/A   Mist
10:48 AM 33.8 °F - 33.8 °F 100% 29.90 in 3.0 mi Calm Calm - N/A   Mostly Cloudy
10:56 AM 34.0 °F - 34.0 °F 100% 29.94 in 3.0 mi Calm Calm - N/A   Mostly Cloudy
11:56 AM 36.0 °F - 35.1 °F 97% 29.94 in 3.0 mi Calm Calm - N/A   Clear
12:06 PM 35.6 °F - 35.6 °F 100% 29.88 in 2.5 mi Calm Calm - N/A   Scattered Clouds
12:27 PM 37.4 °F - 35.6 °F 93% 29.87 in 3.0 mi Calm Calm - N/A   Mostly Cloudy
12:42 PM 37.4 °F 34.9 °F 35.6 °F 93% 29.86 in 3.0 mi NNE 3.5 mph - N/A   Partly Cloudy
12:56 PM 37.0 °F 33.3 °F 36.0 °F 96% 29.91 in 3.0 mi ENE 4.6 mph - N/A   Mostly Cloudy
1:56 PM 37.9 °F 35.5 °F 36.0 °F 93% 29.88 in 3.0 mi ENE 3.5 mph - N/A   Mostly Cloudy
2:03 PM 37.4 °F 33.8 °F 35.6 °F 93% 29.83 in 2.0 mi NNE 4.6 mph - N/A   Overcast
2:56 PM 37.9 °F - 36.0 °F 93% 29.92 in 2.5 mi Calm Calm - N/A   Overcast
3:56 PM 37.0 °F 32.4 °F 36.0 °F 96% 29.91 in 2.5 mi ENE 5.8 mph - N/A   Overcast
4:31 PM 35.6 °F 32.8 °F 35.6 °F 100% 29.86 in 1.8 mi NNE 3.5 mph - N/A   Overcast
4:53 PM 35.6 °F 31.7 °F 35.6 °F 100% 29.86 in 2.5 mi ENE 4.6 mph - N/A   Overcast
4:56 PM 36.0 °F - 36.0 °F 100% 29.91 in 2.5 mi Calm Calm - N/A   Overcast
5:04 PM 35.6 °F - 35.6 °F 100% 29.87 in 3.0 mi Calm Calm - N/A   Overcast
5:11 PM 35.6 °F - 35.6 °F 100% 29.87 in 2.5 mi Calm Calm - N/A   Overcast
5:24 PM 37.4 °F 34.9 °F 35.6 °F 93% 29.87 in 4.0 mi ESE 3.5 mph - N/A   Overcast
5:56 PM 37.0 °F 33.3 °F 36.0 °F 96% 29.92 in 4.0 mi ENE 4.6 mph - N/A   Overcast
6:17 PM 37.4 °F - 37.4 °F 100% 29.88 in 2.5 mi Calm Calm - N/A   Overcast
6:56 PM 36.0 °F - 36.0 °F 100% 29.94 in 2.0 mi Calm Calm - N/A   Overcast
7:05 PM 35.6 °F - 35.6 °F 100% 29.89 in 1.5 mi Calm Calm - N/A   Overcast
7:38 PM 35.6 °F - 35.6 °F 100% 29.89 in 0.5 mi Calm Calm - N/A Fog Fog
7:56 PM 36.0 °F 33.3 °F 36.0 °F 100% 29.95 in 0.5 mi NNE 3.5 mph - N/A Fog Fog
8:03 PM 35.6 °F 31.7 °F 35.6 °F 100% 29.90 in 0.2 mi NNE 4.6 mph - N/A Fog Fog
8:36 PM 35.6 °F 32.8 °F 35.6 °F 100% 29.90 in 0.5 mi NNE 3.5 mph - N/A Fog Fog
8:56 PM 36.0 °F - 36.0 °F 100% 29.95 in 0.8 mi Calm Calm - N/A   Mist
9:04 PM 35.6 °F - 35.6 °F 100% 29.91 in 1.2 mi Calm Calm - N/A   Overcast
9:49 PM 35.6 °F 32.8 °F 35.6 °F 100% 29.92 in 0.8 mi NW 3.5 mph - N/A   Overcast
9:56 PM 35.1 °F - 35.1 °F 100% 29.96 in 0.8 mi Calm Calm - N/A   Overcast
10:18 PM 35.6 °F - 35.6 °F 100% 29.91 in 1.2 mi Calm Calm - N/A   Overcast
10:56 PM 35.1 °F - 35.1 °F 100% 29.97 in 1.2 mi Calm Calm - N/A   Overcast
11:21 PM 35.6 °F 32.8 °F 35.6 °F 100% 29.91 in 0.5 mi ENE 3.5 mph - N/A Fog Fog
11:32 PM 35.6 °F - 35.6 °F 100% 29.91 in 0.2 mi Calm Calm - N/A Fog Fog
11:39 PM 35.6 °F - 35.6 °F 100% 29.90 in 0.2 mi Calm Calm - N/A Fog Fog
11:56 PM 35.1 °F 32.2 °F 35.1 °F 100% 29.96 in 0.5 mi East 3.5 mph - N/A Fog Fog